Time,TemperatureF,DewpointF,PressureIn,WindDirection,WindDirectionDegrees,WindSpeedMPH,WindSpeedGustMPH,Humidity,HourlyPrecipIn,Conditions,Clouds,dailyrainin,SoftwareType,DateUTC
2013-10-21 00:01:00,46.3,43.2,30.01,SSW,212,0.0,1.0,89,0.00,,,0.00,Wunderground v.1.15,2013-10-21 05:01:00,
2013-10-21 00:06:00,46.5,43.1,30.01,SW,226,0.0,1.0,88,0.00,,,0.00,Wunderground v.1.15,2013-10-21 05:06:00,
2013-10-21 00:11:00,46.4,43.0,30.01,SW,219,0.0,1.0,88,0.00,,,0.00,Wunderground v.1.15,2013-10-21 05:11:00,
2013-10-21 00:16:00,46.6,43.2,30.01,SW,222,0.0,1.0,88,0.00,,,0.00,Wunderground v.1.15,2013-10-21 05:16:00,
2013-10-21 00:21:00,46.4,43.0,30.01,SW,233,1.0,1.0,88,0.00,,,0.00,Wunderground v.1.15,2013-10-21 05:21:00,
2013-10-21 00:26:00,46.4,43.0,30.01,SW,225,0.0,1.0,88,0.00,,,0.00,Wunderground v.1.15,2013-10-21 05:26:00,
2013-10-21 00:31:00,46.0,42.6,30.01,SW,231,0.0,0.0,88,0.00,,,0.00,Wunderground v.1.15,2013-10-21 05:31:00,
2013-10-21 00:36:00,45.4,42.3,30.01,SW,231,0.0,0.0,89,0.00,,,0.00,Wunderground v.1.15,2013-10-21 05:36:00,
2013-10-21 00:41:00,44.9,42.1,30.01,SW,231,0.0,0.0,90,0.00,,,0.00,Wunderground v.1.15,2013-10-21 05:41:00,
2013-10-21 00:46:00,44.4,42.2,30.01,SW,231,0.0,0.0,92,0.00,,,0.00,Wunderground v.1.15,2013-10-21 05:46:00,
2013-10-21 00:51:00,44.1,41.9,30.01,SW,231,0.0,0.0,92,0.00,,,0.00,Wunderground v.1.15,2013-10-21 05:51:00,
2013-10-21 00:56:00,43.9,42.0,30.01,SW,231,0.0,0.0,93,0.00,,,0.00,Wunderground v.1.15,2013-10-21 05:56:00,
2013-10-21 01:01:00,43.7,41.8,30.01,SW,231,0.0,0.0,93,0.00,,,0.00,Wunderground v.1.15,2013-10-21 06:01:00,
2013-10-21 01:06:00,43.4,41.5,30.01,SW,231,0.0,0.0,93,0.00,,,0.00,Wunderground v.1.15,2013-10-21 06:06:00,
2013-10-21 01:11:00,43.2,41.6,30.01,SW,231,0.0,0.0,94,0.00,,,0.00,Wunderground v.1.15,2013-10-21 06:11:00,
2013-10-21 01:16:00,42.9,41.3,30.01,SW,231,0.0,0.0,94,0.00,,,0.00,Wunderground v.1.15,2013-10-21 06:16:00,
2013-10-21 01:21:00,42.8,41.2,30.01,SW,231,0.0,0.0,94,0.00,,,0.00,Wunderground v.1.15,2013-10-21 06:21:00,
2013-10-21 01:26:00,42.6,41.3,30.01,SW,231,0.0,0.0,95,0.00,,,0.00,Wunderground v.1.15,2013-10-21 06:26:00,
2013-10-21 01:31:00,42.4,40.8,30.01,SW,231,0.0,0.0,94,0.00,,,0.00,Wunderground v.1.15,2013-10-21 06:31:00,
2013-10-21 01:36:00,42.3,41.0,30.01,SW,231,0.0,0.0,95,0.00,,,0.00,Wunderground v.1.15,2013-10-21 06:36:00,
2013-10-21 01:41:00,42.2,40.9,30.01,SW,231,0.0,0.0,95,0.00,,,0.00,Wunderground v.1.15,2013-10-21 06:41:00,
2013-10-21 01:46:00,42.2,40.9,30.01,SSW,206,0.0,2.0,95,0.00,,,0.00,Wunderground v.1.15,2013-10-21 06:46:00,
2013-10-21 01:51:00,42.2,41.1,30.01,SW,222,0.0,0.0,96,0.00,,,0.00,Wunderground v.1.15,2013-10-21 06:51:00,
2013-10-21 01:56:00,42.1,40.8,30.01,SW,222,0.0,0.0,95,0.00,,,0.00,Wunderground v.1.15,2013-10-21 06:56:00,
2013-10-21 02:01:00,41.9,40.6,30.01,SW,222,0.0,0.0,95,0.00,,,0.00,Wunderground v.1.15,2013-10-21 07:01:00,
2013-10-21 02:06:00,42.0,40.9,30.01,SW,222,0.0,0.0,96,0.00,,,0.00,Wunderground v.1.15,2013-10-21 07:06:00,
2013-10-21 02:11:00,42.3,41.2,30.01,SW,222,0.0,0.0,96,0.00,,,0.00,Wunderground v.1.15,2013-10-21 07:11:00,
2013-10-21 02:16:00,42.4,41.3,30.01,SW,222,0.0,0.0,96,0.00,,,0.00,Wunderground v.1.15,2013-10-21 07:16:00,
2013-10-21 02:21:00,42.4,41.1,30.01,SW,224,0.0,0.0,95,0.00,,,0.00,Wunderground v.1.15,2013-10-21 07:21:00,
2013-10-21 02:26:00,42.5,41.2,30.01,SW,222,0.0,0.0,95,0.00,,,0.00,Wunderground v.1.15,2013-10-21 07:26:00,
2013-10-21 02:31:00,42.6,41.3,30.01,SW,222,0.0,0.0,95,0.00,,,0.00,Wunderground v.1.15,2013-10-21 07:31:00,
2013-10-21 02:36:00,43.0,41.7,30.01,SW,229,0.0,1.0,95,0.00,,,0.00,Wunderground v.1.15,2013-10-21 07:36:00,
2013-10-21 02:41:00,43.5,41.9,30.01,SW,236,0.0,1.0,94,0.00,,,0.00,Wunderground v.1.15,2013-10-21 07:41:00,
2013-10-21 02:46:00,43.8,41.9,30.02,SSW,211,0.0,2.0,93,0.00,,,0.00,Wunderground v.1.15,2013-10-21 07:46:00,
2013-10-21 02:51:00,43.9,41.7,30.02,SW,224,1.0,1.0,92,0.00,,,0.00,Wunderground v.1.15,2013-10-21 07:51:00,
2013-10-21 02:56:00,43.9,41.7,30.02,SSW,212,1.0,2.0,92,0.00,,,0.00,Wunderground v.1.15,2013-10-21 07:56:00,
2013-10-21 03:01:00,44.1,41.6,30.02,SW,229,1.0,2.0,91,0.00,,,0.00,Wunderground v.1.15,2013-10-21 08:01:00,
2013-10-21 03:06:00,44.3,41.8,30.02,SW,224,2.0,2.0,91,0.00,,,0.00,Wunderground v.1.15,2013-10-21 08:06:00,
2013-10-21 03:11:00,44.5,41.7,30.02,WSW,238,1.0,2.0,90,0.00,,,0.00,Wunderground v.1.15,2013-10-21 08:11:00,
2013-10-21 03:16:00,44.6,41.8,30.02,SSW,208,1.0,2.0,90,0.00,,,0.00,Wunderground v.1.15,2013-10-21 08:16:00,
2013-10-21 03:21:00,44.6,41.8,30.03,SW,231,1.0,1.0,90,0.00,,,0.00,Wunderground v.1.15,2013-10-21 08:21:00,
2013-10-21 03:26:00,44.5,41.7,30.03,WSW,242,1.0,2.0,90,0.00,,,0.00,Wunderground v.1.15,2013-10-21 08:26:00,
2013-10-21 03:31:00,44.4,41.7,30.03,SW,226,1.0,2.0,90,0.00,,,0.00,Wunderground v.1.15,2013-10-21 08:31:00,
2013-10-21 03:36:00,44.4,41.7,30.03,SSW,207,1.0,3.0,90,0.00,,,0.00,Wunderground v.1.15,2013-10-21 08:36:00,
2013-10-21 03:41:00,44.4,41.7,30.03,SW,235,0.0,2.0,90,0.00,,,0.00,Wunderground v.1.15,2013-10-21 08:41:00,
2013-10-21 03:46:00,44.4,41.7,30.03,SW,221,1.0,2.0,90,0.00,,,0.00,Wunderground v.1.15,2013-10-21 08:46:00,
2013-10-21 03:51:00,44.5,41.7,30.03,SW,218,2.0,3.0,90,0.00,,,0.00,Wunderground v.1.15,2013-10-21 08:51:00,
2013-10-21 03:56:00,44.5,41.7,30.03,SW,224,0.0,3.0,90,0.00,,,0.00,Wunderground v.1.15,2013-10-21 08:56:00,
2013-10-21 04:01:00,44.5,41.7,30.03,SW,228,2.0,3.0,90,0.00,,,0.00,Wunderground v.1.15,2013-10-21 09:01:00,
2013-10-21 04:06:00,44.5,41.5,30.03,SW,225,2.0,3.0,89,0.00,,,0.00,Wunderground v.1.15,2013-10-21 09:06:00,
2013-10-21 04:11:00,44.5,41.5,30.03,SW,224,2.0,2.0,89,0.00,,,0.00,Wunderground v.1.15,2013-10-21 09:11:00,
2013-10-21 04:16:00,44.5,41.5,30.03,SW,228,0.0,3.0,89,0.00,,,0.00,Wunderground v.1.15,2013-10-21 09:16:00,
2013-10-21 04:21:00,44.4,41.4,30.03,SW,225,1.0,1.0,89,0.00,,,0.00,Wunderground v.1.15,2013-10-21 09:21:00,
2013-10-21 04:26:00,44.3,41.6,30.03,SW,221,1.0,2.0,90,0.00,,,0.00,Wunderground v.1.15,2013-10-21 09:26:00,
2013-10-21 04:31:00,44.2,41.5,30.03,SW,228,0.0,1.0,90,0.00,,,0.00,Wunderground v.1.15,2013-10-21 09:31:00,
2013-10-21 04:36:00,44.1,41.4,30.03,SW,228,0.0,2.0,90,0.00,,,0.00,Wunderground v.1.15,2013-10-21 09:36:00,
2013-10-21 04:41:00,44.1,41.4,30.03,SW,232,0.0,1.0,90,0.00,,,0.00,Wunderground v.1.15,2013-10-21 09:41:00,
2013-10-21 04:46:00,44.0,41.3,30.03,SW,216,0.0,1.0,90,0.00,,,0.00,Wunderground v.1.15,2013-10-21 09:46:00,
2013-10-21 04:51:00,43.6,40.9,30.03,SW,217,0.0,0.0,90,0.00,,,0.00,Wunderground v.1.15,2013-10-21 09:51:00,
2013-10-21 04:56:00,43.1,40.4,30.03,SW,217,0.0,0.0,90,0.00,,,0.00,Wunderground v.1.15,2013-10-21 09:56:00,
2013-10-21 05:01:00,42.6,40.2,30.03,SW,216,0.0,0.0,91,0.00,,,0.00,Wunderground v.1.15,2013-10-21 10:01:00,
2013-10-21 05:06:00,42.1,39.9,30.03,SW,217,0.0,0.0,92,0.00,,,0.00,Wunderground v.1.15,2013-10-21 10:06:00,
2013-10-21 05:11:00,41.8,39.9,30.03,SW,217,0.0,0.0,93,0.00,,,0.00,Wunderground v.1.15,2013-10-21 10:11:00,
2013-10-21 05:16:00,41.5,39.6,30.03,SW,218,0.0,0.0,93,0.00,,,0.00,Wunderground v.1.15,2013-10-21 10:16:00,
2013-10-21 05:21:00,41.2,39.3,30.03,SW,218,0.0,0.0,93,0.00,,,0.00,Wunderground v.1.15,2013-10-21 10:21:00,
2013-10-21 05:26:00,41.0,39.4,30.03,SW,218,0.0,1.0,94,0.00,,,0.00,Wunderground v.1.15,2013-10-21 10:26:00,
2013-10-21 05:31:00,41.2,39.9,30.03,SW,217,0.0,0.0,95,0.00,,,0.00,Wunderground v.1.15,2013-10-21 10:31:00,
2013-10-21 05:36:00,41.1,39.8,30.03,WSW,250,0.0,1.0,95,0.00,,,0.00,Wunderground v.1.15,2013-10-21 10:36:00,
2013-10-21 05:41:00,40.9,39.3,30.03,WSW,250,0.0,0.0,94,0.00,,,0.00,Wunderground v.1.15,2013-10-21 10:41:00,
2013-10-21 05:46:00,40.9,39.6,30.03,WSW,248,0.0,1.0,95,0.00,,,0.00,Wunderground v.1.15,2013-10-21 10:46:00,
2013-10-21 05:51:00,41.2,40.1,30.03,SW,224,0.0,0.0,96,0.00,,,0.00,Wunderground v.1.15,2013-10-21 10:51:00,
2013-10-21 05:56:00,41.9,40.8,30.03,SW,226,0.0,1.0,96,0.00,,,0.00,Wunderground v.1.15,2013-10-21 10:56:00,
2013-10-21 06:01:00,42.5,41.2,30.03,SW,228,1.0,1.0,95,0.00,,,0.00,Wunderground v.1.15,2013-10-21 11:01:00,
2013-10-21 06:06:00,42.7,40.8,30.03,SW,224,0.0,2.0,93,0.00,,,0.00,Wunderground v.1.15,2013-10-21 11:06:00,
2013-10-21 06:11:00,42.7,40.5,30.03,SW,223,0.0,0.0,92,0.00,,,0.00,Wunderground v.1.15,2013-10-21 11:11:00,
2013-10-21 06:16:00,42.4,40.2,30.03,SW,223,0.0,0.0,92,0.00,,,0.00,Wunderground v.1.15,2013-10-21 11:16:00,
2013-10-21 06:21:00,42.2,40.3,30.03,SW,221,0.0,1.0,93,0.00,,,0.00,Wunderground v.1.15,2013-10-21 11:21:00,
2013-10-21 06:26:00,42.3,40.4,30.03,SW,219,0.0,1.0,93,0.00,,,0.00,Wunderground v.1.15,2013-10-21 11:26:00,
2013-10-21 06:31:00,42.3,40.4,30.03,SW,225,0.0,1.0,93,0.00,,,0.00,Wunderground v.1.15,2013-10-21 11:31:00,
2013-10-21 06:36:00,42.7,40.8,30.03,SW,224,2.0,3.0,93,0.00,,,0.00,Wunderground v.1.15,2013-10-21 11:36:00,
2013-10-21 06:41:00,43.1,40.9,30.03,SW,222,1.0,2.0,92,0.00,,,0.00,Wunderground v.1.15,2013-10-21 11:41:00,
2013-10-21 06:46:00,43.5,41.3,30.03,SW,221,0.0,3.0,92,0.00,,,0.00,Wunderground v.1.15,2013-10-21 11:46:00,
2013-10-21 06:51:00,43.6,41.1,30.03,SW,219,1.0,2.0,91,0.00,,,0.00,Wunderground v.1.15,2013-10-21 11:51:00,
2013-10-21 06:56:00,43.8,41.3,30.03,SW,217,0.0,3.0,91,0.00,,,0.00,Wunderground v.1.15,2013-10-21 11:56:00,
2013-10-21 07:01:00,44.0,41.3,30.03,SW,226,1.0,1.0,90,0.00,,,0.00,Wunderground v.1.15,2013-10-21 12:01:00,
2013-10-21 07:06:00,44.1,41.4,30.03,WSW,239,1.0,3.0,90,0.00,,,0.00,Wunderground v.1.15,2013-10-21 12:06:00,
2013-10-21 07:11:00,44.2,41.5,30.03,SW,231,2.0,3.0,90,0.00,,,0.00,Wunderground v.1.15,2013-10-21 12:11:00,
2013-10-21 07:16:00,44.3,41.6,30.03,SW,226,2.0,3.0,90,0.00,,,0.00,Wunderground v.1.15,2013-10-21 12:16:00,
2013-10-21 07:21:00,44.3,41.6,30.04,SSW,211,0.0,2.0,90,0.00,,,0.00,Wunderground v.1.15,2013-10-21 12:21:00,
2013-10-21 07:26:00,44.4,41.7,30.04,WSW,242,1.0,4.0,90,0.00,,,0.00,Wunderground v.1.15,2013-10-21 12:26:00,
2013-10-21 07:31:00,44.5,41.7,30.04,WSW,253,1.0,3.0,90,0.00,,,0.00,Wunderground v.1.15,2013-10-21 12:31:00,
2013-10-21 07:36:00,44.7,41.7,30.04,SW,217,1.0,3.0,89,0.00,,,0.00,Wunderground v.1.15,2013-10-21 12:36:00,
2013-10-21 07:41:00,44.9,41.9,30.04,SW,224,2.0,3.0,89,0.00,,,0.00,Wunderground v.1.15,2013-10-21 12:41:00,
2013-10-21 07:46:00,45.2,42.2,30.04,SW,231,3.0,4.0,89,0.00,,,0.00,Wunderground v.1.15,2013-10-21 12:46:00,
2013-10-21 07:51:00,45.3,42.0,30.04,SW,229,2.0,3.0,88,0.00,,,0.00,Wunderground v.1.15,2013-10-21 12:51:00,
2013-10-21 07:56:00,45.5,42.2,30.04,SW,231,2.0,6.0,88,0.00,,,0.00,Wunderground v.1.15,2013-10-21 12:56:00,
2013-10-21 08:01:00,45.9,42.5,30.04,SW,232,3.0,3.0,88,0.00,,,0.00,Wunderground v.1.15,2013-10-21 13:01:00,
2013-10-21 08:06:00,46.3,42.6,30.04,SW,221,2.0,3.0,87,0.00,,,0.00,Wunderground v.1.15,2013-10-21 13:06:00,
2013-10-21 08:11:00,46.6,42.9,30.05,SSW,211,1.0,5.0,87,0.00,,,0.00,Wunderground v.1.15,2013-10-21 13:11:00,
2013-10-21 08:16:00,47.0,43.3,30.04,SW,233,2.0,5.0,87,0.00,,,0.00,Wunderground v.1.15,2013-10-21 13:16:00,
2013-10-21 08:21:00,47.5,43.5,30.04,SW,232,3.0,3.0,86,0.00,,,0.00,Wunderground v.1.15,2013-10-21 13:21:00,
2013-10-21 08:26:00,47.9,43.9,30.04,WSW,245,5.0,5.0,86,0.00,,,0.00,Wunderground v.1.15,2013-10-21 13:26:00,
2013-10-21 08:31:00,48.4,44.4,30.04,SSE,148,1.0,3.0,86,0.00,,,0.00,Wunderground v.1.15,2013-10-21 13:31:00,
2013-10-21 08:36:00,49.1,44.8,30.04,SSW,212,1.0,6.0,85,0.00,,,0.00,Wunderground v.1.15,2013-10-21 13:36:00,
2013-10-21 08:41:00,49.8,45.5,30.04,WSW,254,2.0,3.0,85,0.00,,,0.00,Wunderground v.1.15,2013-10-21 13:41:00,
2013-10-21 08:46:00,50.1,45.5,30.04,SSW,203,3.0,6.0,84,0.00,,,0.00,Wunderground v.1.15,2013-10-21 13:46:00,
2013-10-21 08:51:00,50.3,45.3,30.04,SW,220,3.0,5.0,83,0.00,,,0.00,Wunderground v.1.15,2013-10-21 13:51:00,
2013-10-21 08:56:00,50.7,45.7,30.04,WSW,242,1.0,5.0,83,0.00,,,0.00,Wunderground v.1.15,2013-10-21 13:56:00,
2013-10-21 09:01:00,51.3,46.3,30.04,SW,234,1.0,3.0,83,0.00,,,0.00,Wunderground v.1.15,2013-10-21 14:01:00,
2013-10-21 09:06:00,51.8,46.5,30.04,WSW,240,2.0,4.0,82,0.00,,,0.00,Wunderground v.1.15,2013-10-21 14:06:00,
2013-10-21 09:11:00,52.3,46.3,30.04,West,273,0.0,2.0,80,0.00,,,0.00,Wunderground v.1.15,2013-10-21 14:11:00,
2013-10-21 09:16:00,52.8,46.8,30.04,West,269,0.0,7.0,80,0.00,,,0.00,Wunderground v.1.15,2013-10-21 14:16:00,
2013-10-21 09:21:00,53.2,46.9,30.03,WSW,241,3.0,5.0,79,0.00,,,0.00,Wunderground v.1.15,2013-10-21 14:21:00,
2013-10-21 09:26:00,53.6,46.6,30.03,WSW,249,3.0,7.0,77,0.00,,,0.00,Wunderground v.1.15,2013-10-21 14:26:00,
2013-10-21 09:31:00,54.0,47.0,30.03,WSW,250,2.0,5.0,77,0.00,,,0.00,Wunderground v.1.15,2013-10-21 14:31:00,
2013-10-21 09:35:00,54.4,47.0,30.03,SW,226,4.0,6.0,76,0.00,,,0.00,Wunderground v.1.15,2013-10-21 14:35:00,
2013-10-21 09:40:00,54.7,46.9,30.04,WSW,252,2.0,3.0,75,0.00,,,0.00,Wunderground v.1.15,2013-10-21 14:40:00,
2013-10-21 09:45:00,55.0,47.2,30.04,WNW,298,2.0,6.0,75,0.00,,,0.00,Wunderground v.1.15,2013-10-21 14:45:00,
2013-10-21 09:50:00,55.4,47.2,30.04,West,278,5.0,7.0,74,0.00,,,0.00,Wunderground v.1.15,2013-10-21 14:50:00,
2013-10-21 09:55:00,55.6,47.8,30.03,West,276,0.0,7.0,75,0.00,,,0.00,Wunderground v.1.15,2013-10-21 14:55:00,
2013-10-21 10:00:00,56.1,47.9,30.03,WNW,298,3.0,8.0,74,0.00,,,0.00,Wunderground v.1.15,2013-10-21 15:00:00,
2013-10-21 10:05:00,56.6,48.4,30.03,WNW,297,3.0,8.0,74,0.00,,,0.00,Wunderground v.1.15,2013-10-21 15:05:00,
2013-10-21 10:10:00,57.3,48.7,30.03,SSW,201,5.0,8.0,73,0.00,,,0.00,Wunderground v.1.15,2013-10-21 15:10:00,
2013-10-21 10:15:00,57.8,48.8,30.03,WSW,248,1.0,8.0,72,0.00,,,0.00,Wunderground v.1.15,2013-10-21 15:15:00,
2013-10-21 10:20:00,58.0,49.0,30.03,West,276,2.0,3.0,72,0.00,,,0.00,Wunderground v.1.15,2013-10-21 15:20:00,
2013-10-21 10:25:00,58.3,48.9,30.04,West,266,2.0,7.0,71,0.00,,,0.00,Wunderground v.1.15,2013-10-21 15:25:00,
2013-10-21 10:30:00,58.7,48.9,30.04,WSW,255,7.0,7.0,70,0.00,,,0.00,Wunderground v.1.15,2013-10-21 15:30:00,
2013-10-21 10:35:00,58.9,49.1,30.03,West,273,2.0,8.0,70,0.00,,,0.00,Wunderground v.1.15,2013-10-21 15:35:00,
2013-10-21 10:40:00,59.1,49.7,30.03,WNW,296,2.0,3.0,71,0.00,,,0.00,Wunderground v.1.15,2013-10-21 15:40:00,
2013-10-21 10:45:00,59.7,49.9,30.03,SSW,200,0.0,5.0,70,0.00,,,0.00,Wunderground v.1.15,2013-10-21 15:45:00,
2013-10-21 10:50:00,60.4,49.4,30.03,West,266,1.0,3.0,67,0.00,,,0.00,Wunderground v.1.15,2013-10-21 15:50:00,
2013-10-21 10:55:00,61.2,48.9,30.03,SW,224,5.0,8.0,64,0.00,,,0.00,Wunderground v.1.15,2013-10-21 15:55:00,
2013-10-21 11:00:00,61.7,49.0,30.03,WSW,246,5.0,5.0,63,0.00,,,0.00,Wunderground v.1.15,2013-10-21 16:00:00,
2013-10-21 11:05:00,62.2,49.0,30.03,NW,314,1.0,6.0,62,0.00,,,0.00,Wunderground v.1.15,2013-10-21 16:05:00,
2013-10-21 11:10:00,62.6,48.5,30.03,WSW,252,3.0,5.0,60,0.00,,,0.00,Wunderground v.1.15,2013-10-21 16:10:00,
2013-10-21 11:15:00,63.0,48.0,30.03,WSW,255,6.0,13.0,58,0.00,,,0.00,Wunderground v.1.15,2013-10-21 16:15:00,
2013-10-21 11:20:00,63.2,48.6,30.03,NW,314,5.0,8.0,59,0.00,,,0.00,Wunderground v.1.15,2013-10-21 16:20:00,
2013-10-21 11:25:00,63.1,48.1,30.03,West,276,4.0,10.0,58,0.00,,,0.00,Wunderground v.1.15,2013-10-21 16:25:00,
2013-10-21 11:30:00,63.3,48.7,30.03,WNW,294,7.0,7.0,59,0.00,,,0.00,Wunderground v.1.15,2013-10-21 16:30:00,
2013-10-21 11:35:00,63.7,48.6,30.03,WNW,296,4.0,12.0,58,0.00,,,0.00,Wunderground v.1.15,2013-10-21 16:35:00,
2013-10-21 11:40:00,64.1,49.5,30.02,WSW,248,4.0,5.0,59,0.00,,,0.00,Wunderground v.1.15,2013-10-21 16:40:00,
2013-10-21 11:45:00,64.2,49.6,30.02,SW,231,4.0,11.0,59,0.00,,,0.00,Wunderground v.1.15,2013-10-21 16:45:00,
2013-10-21 11:50:00,64.5,50.3,30.02,West,281,1.0,7.0,60,0.00,,,0.00,Wunderground v.1.15,2013-10-21 16:50:00,
2013-10-21 11:55:00,64.5,48.9,30.02,SW,236,4.0,9.0,57,0.00,,,0.00,Wunderground v.1.15,2013-10-21 16:55:00,
2013-10-21 12:00:00,64.6,49.5,30.02,WSW,242,5.0,8.0,58,0.00,,,0.00,Wunderground v.1.15,2013-10-21 17:00:00,
2013-10-21 12:05:00,64.8,49.2,30.02,NW,321,5.0,13.0,57,0.00,,,0.00,Wunderground v.1.15,2013-10-21 17:05:00,
2013-10-21 12:10:00,65.0,50.3,30.01,WSW,248,0.0,7.0,59,0.00,,,0.00,Wunderground v.1.15,2013-10-21 17:10:00,
2013-10-21 12:15:00,65.3,49.7,30.02,West,269,8.0,8.0,57,0.00,,,0.00,Wunderground v.1.15,2013-10-21 17:15:00,
2013-10-21 12:20:00,65.2,49.1,30.01,WNW,284,7.0,7.0,56,0.00,,,0.00,Wunderground v.1.15,2013-10-21 17:20:00,
2013-10-21 12:25:00,65.7,50.5,30.01,SW,232,3.0,7.0,58,0.00,,,0.00,Wunderground v.1.15,2013-10-21 17:25:00,
2013-10-21 12:30:00,65.7,50.0,30.01,West,267,7.0,7.0,57,0.00,,,0.00,Wunderground v.1.15,2013-10-21 17:30:00,
2013-10-21 12:35:00,65.8,51.1,30.01,NW,307,3.0,13.0,59,0.00,,,0.00,Wunderground v.1.15,2013-10-21 17:35:00,
2013-10-21 12:40:00,66.2,50.5,30.00,SW,235,7.0,12.0,57,0.00,,,0.00,Wunderground v.1.15,2013-10-21 17:40:00,
2013-10-21 12:45:00,66.2,50.5,30.01,WSW,246,4.0,12.0,57,0.00,,,0.00,Wunderground v.1.15,2013-10-21 17:45:00,
2013-10-21 12:50:00,66.0,50.3,30.00,WSW,242,6.0,7.0,57,0.00,,,0.00,Wunderground v.1.15,2013-10-21 17:50:00,
2013-10-21 12:55:00,65.6,50.4,30.00,WNW,284,8.0,13.0,58,0.00,,,0.00,Wunderground v.1.15,2013-10-21 17:55:00,
2013-10-21 13:00:00,65.4,50.2,30.00,West,266,3.0,5.0,58,0.00,,,0.00,Wunderground v.1.15,2013-10-21 18:00:00,
2013-10-21 13:05:00,65.2,50.5,30.00,West,267,1.0,8.0,59,0.00,,,0.00,Wunderground v.1.15,2013-10-21 18:05:00,
2013-10-21 13:10:00,65.2,50.5,30.00,WNW,300,2.0,4.0,59,0.00,,,0.00,Wunderground v.1.15,2013-10-21 18:10:00,
2013-10-21 13:15:00,64.9,49.8,29.99,West,280,4.0,12.0,58,0.00,,,0.00,Wunderground v.1.15,2013-10-21 18:15:00,
2013-10-21 13:20:00,64.5,50.3,29.99,SW,225,1.0,4.0,60,0.00,,,0.00,Wunderground v.1.15,2013-10-21 18:20:00,
2013-10-21 13:25:00,64.2,50.0,29.98,West,278,5.0,10.0,60,0.00,,,0.00,Wunderground v.1.15,2013-10-21 18:25:00,
2013-10-21 13:30:00,64.1,50.4,29.98,WNW,295,2.0,3.0,61,0.00,,,0.00,Wunderground v.1.15,2013-10-21 18:30:00,
2013-10-21 13:35:00,64.0,50.7,29.98,NW,305,2.0,3.0,62,0.00,,,0.00,Wunderground v.1.15,2013-10-21 18:35:00,
2013-10-21 13:40:00,64.0,51.1,29.98,WNW,290,2.0,3.0,63,0.00,,,0.00,Wunderground v.1.15,2013-10-21 18:40:00,
2013-10-21 13:45:00,64.0,51.1,29.97,WSW,249,2.0,3.0,63,0.00,,,0.00,Wunderground v.1.15,2013-10-21 18:45:00,
2013-10-21 13:50:00,64.1,50.8,29.97,WSW,256,2.0,2.0,62,0.00,,,0.00,Wunderground v.1.15,2013-10-21 18:50:00,
2013-10-21 13:55:00,64.2,51.8,29.97,WSW,240,1.0,4.0,64,0.00,,,0.00,Wunderground v.1.15,2013-10-21 18:55:00,
2013-10-21 14:00:00,64.4,52.0,29.97,WNW,295,3.0,3.0,64,0.00,,,0.00,Wunderground v.1.15,2013-10-21 19:00:00,
2013-10-21 14:05:00,64.5,51.2,29.97,WNW,297,4.0,7.0,62,0.00,,,0.00,Wunderground v.1.15,2013-10-21 19:05:00,
2013-10-21 14:10:00,64.6,51.3,29.97,WNW,300,4.0,7.0,62,0.00,,,0.00,Wunderground v.1.15,2013-10-21 19:10:00,
2013-10-21 14:15:00,64.7,51.4,29.97,WNW,298,3.0,9.0,62,0.00,,,0.00,Wunderground v.1.15,2013-10-21 19:15:00,
2013-10-21 14:20:00,65.0,52.1,29.97,WSW,256,6.0,6.0,63,0.00,,,0.00,Wunderground v.1.15,2013-10-21 19:20:00,
2013-10-21 14:25:00,65.2,51.4,29.97,WNW,288,3.0,9.0,61,0.00,,,0.00,Wunderground v.1.15,2013-10-21 19:25:00,
2013-10-21 14:30:00,65.5,52.1,29.97,WNW,300,7.0,7.0,62,0.00,,,0.00,Wunderground v.1.15,2013-10-21 19:30:00,
2013-10-21 14:35:00,65.6,52.2,29.97,West,280,2.0,9.0,62,0.00,,,0.00,Wunderground v.1.15,2013-10-21 19:35:00,
2013-10-21 14:40:00,65.9,51.2,29.97,West,263,4.0,7.0,59,0.00,,,0.00,Wunderground v.1.15,2013-10-21 19:40:00,
2013-10-21 14:45:00,66.0,51.3,29.97,NW,307,8.0,11.0,59,0.00,,,0.00,Wunderground v.1.15,2013-10-21 19:45:00,
2013-10-21 14:50:00,66.2,51.9,29.96,NW,323,5.0,6.0,60,0.00,,,0.00,Wunderground v.1.15,2013-10-21 19:50:00,
2013-10-21 14:55:00,66.0,51.7,29.97,WNW,285,5.0,9.0,60,0.00,,,0.00,Wunderground v.1.15,2013-10-21 19:55:00,
2013-10-21 15:00:00,65.9,51.6,29.97,NW,322,3.0,5.0,60,0.00,,,0.00,Wunderground v.1.15,2013-10-21 20:00:00,
2013-10-21 15:05:00,65.8,52.0,29.97,WNW,300,3.0,6.0,61,0.00,,,0.00,Wunderground v.1.15,2013-10-21 20:05:00,
2013-10-21 15:10:00,65.8,52.0,29.97,West,271,2.0,3.0,61,0.00,,,0.00,Wunderground v.1.15,2013-10-21 20:10:00,
2013-10-21 15:15:00,65.8,52.0,29.97,West,273,4.0,5.0,61,0.00,,,0.00,Wunderground v.1.15,2013-10-21 20:15:00,
2013-10-21 15:20:00,65.7,51.0,29.97,West,281,4.0,4.0,59,0.00,,,0.00,Wunderground v.1.15,2013-10-21 20:20:00,
2013-10-21 15:25:00,65.5,50.3,29.97,WSW,238,5.0,10.0,58,0.00,,,0.00,Wunderground v.1.15,2013-10-21 20:25:00,
2013-10-21 15:30:00,65.4,50.2,29.97,WSW,245,3.0,4.0,58,0.00,,,0.00,Wunderground v.1.15,2013-10-21 20:30:00,
2013-10-21 15:35:00,65.4,50.7,29.97,WNW,300,4.0,5.0,59,0.00,,,0.00,Wunderground v.1.15,2013-10-21 20:35:00,
2013-10-21 15:40:00,65.5,51.7,29.97,WNW,300,3.0,3.0,61,0.00,,,0.00,Wunderground v.1.15,2013-10-21 20:40:00,
2013-10-21 15:45:00,65.4,51.6,29.97,WNW,294,5.0,5.0,61,0.00,,,0.00,Wunderground v.1.15,2013-10-21 20:45:00,
2013-10-21 15:50:00,65.2,51.0,29.97,WNW,300,5.0,5.0,60,0.00,,,0.00,Wunderground v.1.15,2013-10-21 20:50:00,
2013-10-21 15:55:00,65.0,51.2,29.97,WNW,302,4.0,6.0,61,0.00,,,0.00,Wunderground v.1.15,2013-10-21 20:55:00,
2013-10-21 16:00:00,64.7,51.4,29.97,WNW,296,2.0,3.0,62,0.00,,,0.00,Wunderground v.1.15,2013-10-21 21:00:00,
2013-10-21 16:05:00,64.6,51.7,29.97,WNW,293,2.0,3.0,63,0.00,,,0.00,Wunderground v.1.15,2013-10-21 21:05:00,
2013-10-21 16:10:00,64.6,52.6,29.97,WNW,284,3.0,3.0,65,0.00,,,0.00,Wunderground v.1.15,2013-10-21 21:10:00,
2013-10-21 16:15:00,64.7,52.2,29.97,WNW,291,2.0,4.0,64,0.00,,,0.00,Wunderground v.1.15,2013-10-21 21:15:00,
2013-10-21 16:20:00,64.7,52.7,29.97,West,276,0.0,2.0,65,0.00,,,0.00,Wunderground v.1.15,2013-10-21 21:20:00,
2013-10-21 16:25:00,64.7,52.7,29.97,WNW,294,1.0,2.0,65,0.00,,,0.00,Wunderground v.1.15,2013-10-21 21:25:00,
2013-10-21 16:30:00,64.5,52.5,29.97,WNW,282,1.0,1.0,65,0.00,,,0.00,Wunderground v.1.15,2013-10-21 21:30:00,
2013-10-21 16:35:00,64.3,51.9,29.97,West,277,2.0,2.0,64,0.00,,,0.00,Wunderground v.1.15,2013-10-21 21:35:00,
2013-10-21 16:40:00,64.1,52.1,29.97,West,269,0.0,1.0,65,0.00,,,0.00,Wunderground v.1.15,2013-10-21 21:40:00,
2013-10-21 16:45:00,63.9,52.3,29.97,West,263,1.0,2.0,66,0.00,,,0.00,Wunderground v.1.15,2013-10-21 21:45:00,
2013-10-21 16:50:00,63.8,52.2,29.97,West,262,2.0,2.0,66,0.00,,,0.00,Wunderground v.1.15,2013-10-21 21:50:00,
2013-10-21 16:55:00,63.7,52.5,29.97,West,263,0.0,3.0,67,0.00,,,0.00,Wunderground v.1.15,2013-10-21 21:55:00,
2013-10-21 17:00:00,63.5,52.3,29.96,WSW,256,1.0,1.0,67,0.00,,,0.00,Wunderground v.1.15,2013-10-21 22:00:00,
2013-10-21 17:05:00,63.3,51.7,29.96,WSW,256,0.0,2.0,66,0.00,,,0.00,Wunderground v.1.15,2013-10-21 22:05:00,
2013-10-21 17:10:00,63.2,51.6,29.97,West,277,0.0,1.0,66,0.00,,,0.00,Wunderground v.1.15,2013-10-21 22:10:00,
2013-10-21 17:15:00,63.0,51.5,29.97,West,264,0.0,1.0,66,0.00,,,0.00,Wunderground v.1.15,2013-10-21 22:15:00,
2013-10-21 17:20:00,62.8,51.7,29.97,WSW,252,0.0,0.0,67,0.00,,,0.00,Wunderground v.1.15,2013-10-21 22:20:00,
2013-10-21 17:25:00,62.5,51.8,29.97,WNW,290,1.0,2.0,68,0.00,,,0.00,Wunderground v.1.15,2013-10-21 22:25:00,
2013-10-21 17:30:00,62.2,51.5,29.97,WNW,290,0.0,2.0,68,0.00,,,0.00,Wunderground v.1.15,2013-10-21 22:30:00,
2013-10-21 17:35:00,62.0,51.7,29.97,WNW,291,1.0,1.0,69,0.00,,,0.00,Wunderground v.1.15,2013-10-21 22:35:00,
2013-10-21 17:40:00,61.6,52.5,29.97,WNW,291,0.0,0.0,72,0.00,,,0.00,Wunderground v.1.15,2013-10-21 22:40:00,
2013-10-21 17:45:00,61.1,52.0,29.98,WNW,291,0.0,1.0,72,0.00,,,0.00,Wunderground v.1.15,2013-10-21 22:45:00,
2013-10-21 17:50:00,60.9,52.2,29.98,WSW,252,1.0,2.0,73,0.00,,,0.00,Wunderground v.1.15,2013-10-21 22:50:00,
2013-10-21 17:55:00,60.5,52.5,29.98,WSW,249,2.0,2.0,75,0.00,,,0.00,Wunderground v.1.15,2013-10-21 22:55:00,
2013-10-21 18:00:00,60.5,52.2,29.98,WSW,243,3.0,3.0,74,0.00,,,0.00,Wunderground v.1.15,2013-10-21 23:00:00,
2013-10-21 18:05:00,60.6,52.3,29.98,West,269,2.0,4.0,74,0.00,,,0.00,Wunderground v.1.15,2013-10-21 23:05:00,
2013-10-21 18:10:00,60.5,52.2,29.98,WSW,255,2.0,2.0,74,0.00,,,0.00,Wunderground v.1.15,2013-10-21 23:10:00,
2013-10-21 18:15:00,60.2,52.2,29.98,West,261,0.0,2.0,75,0.00,,,0.00,Wunderground v.1.15,2013-10-21 23:15:00,
2013-10-21 18:20:00,60.1,52.5,29.98,West,263,0.0,1.0,76,0.00,,,0.00,Wunderground v.1.15,2013-10-21 23:20:00,
2013-10-21 18:25:00,59.9,52.3,29.98,WSW,257,1.0,2.0,76,0.00,,,0.00,Wunderground v.1.15,2013-10-21 23:25:00,
2013-10-21 18:30:00,59.9,52.3,29.98,WSW,249,1.0,1.0,76,0.00,,,0.00,Wunderground v.1.15,2013-10-21 23:30:00,
2013-10-21 18:35:00,59.7,52.5,29.98,West,265,0.0,2.0,77,0.00,,,0.00,Wunderground v.1.15,2013-10-21 23:35:00,
2013-10-21 18:40:00,59.7,52.5,29.99,West,262,1.0,1.0,77,0.00,,,0.00,Wunderground v.1.15,2013-10-21 23:40:00,
2013-10-21 18:45:00,59.6,52.4,29.99,West,259,2.0,2.0,77,0.00,,,0.00,Wunderground v.1.15,2013-10-21 23:45:00,
2013-10-21 18:50:00,59.6,52.4,29.99,West,263,0.0,1.0,77,0.00,,,0.00,Wunderground v.1.15,2013-10-21 23:50:00,
2013-10-21 18:55:00,59.5,52.3,29.98,WSW,253,0.0,2.0,77,0.00,,,0.00,Wunderground v.1.15,2013-10-21 23:55:00,
2013-10-21 19:00:00,59.5,52.6,29.99,WSW,253,0.0,0.0,78,0.00,,,0.00,Wunderground v.1.15,2013-10-22 00:00:00,
2013-10-21 19:05:00,59.3,52.8,29.99,WSW,253,1.0,1.0,79,0.00,,,0.00,Wunderground v.1.15,2013-10-22 00:05:00,
2013-10-21 19:10:00,59.0,52.8,29.99,WSW,252,0.0,0.0,80,0.00,,,0.00,Wunderground v.1.15,2013-10-22 00:10:00,
2013-10-21 19:15:00,58.7,52.9,29.99,WSW,252,0.0,1.0,81,0.00,,,0.00,Wunderground v.1.15,2013-10-22 00:15:00,
2013-10-21 19:19:00,58.4,52.9,29.98,SW,221,1.0,1.0,82,0.00,,,0.00,Wunderground v.1.15,2013-10-22 00:19:00,
2013-10-21 19:24:00,58.2,53.1,29.99,West,281,1.0,2.0,83,0.00,,,0.01,Wunderground v.1.15,2013-10-22 00:24:00,
2013-10-21 19:29:00,57.9,53.1,29.99,WNW,297,2.0,3.0,84,0.00,,,0.01,Wunderground v.1.15,2013-10-22 00:29:00,
2013-10-21 19:34:00,57.7,53.5,29.99,WNW,301,1.0,2.0,86,0.00,,,0.01,Wunderground v.1.15,2013-10-22 00:34:00,
2013-10-21 19:39:00,57.4,53.6,29.99,NW,322,0.0,3.0,87,0.00,,,0.01,Wunderground v.1.15,2013-10-22 00:39:00,
2013-10-21 19:44:00,57.2,53.4,29.99,NW,316,1.0,3.0,87,0.00,,,0.01,Wunderground v.1.15,2013-10-22 00:44:00,
2013-10-21 19:49:00,57.1,53.3,29.99,NW,308,2.0,3.0,87,0.00,,,0.01,Wunderground v.1.15,2013-10-22 00:49:00,
2013-10-21 19:54:00,56.9,53.1,30.00,NNW,328,1.0,3.0,87,0.00,,,0.01,Wunderground v.1.15,2013-10-22 00:54:00,
2013-10-21 19:59:00,56.9,52.8,30.00,NNW,330,0.0,3.0,86,0.00,,,0.01,Wunderground v.1.15,2013-10-22 00:59:00,
2013-10-21 20:04:00,56.8,52.7,30.00,NE,40,0.0,1.0,86,0.00,,,0.01,Wunderground v.1.15,2013-10-22 01:04:00,
2013-10-21 20:09:00,56.7,52.2,30.01,NE,44,3.0,3.0,85,0.00,,,0.01,Wunderground v.1.15,2013-10-22 01:09:00,
2013-10-21 20:14:00,56.6,51.8,30.01,NE,36,0.0,2.0,84,0.00,,,0.01,Wunderground v.1.15,2013-10-22 01:14:00,
2013-10-21 20:19:00,56.5,51.7,30.01,NE,35,0.0,2.0,84,0.00,,,0.01,Wunderground v.1.15,2013-10-22 01:19:00,
2013-10-21 20:24:00,56.3,52.2,30.01,NE,35,0.0,0.0,86,0.00,,,0.01,Wunderground v.1.15,2013-10-22 01:24:00,
2013-10-21 20:29:00,56.1,52.3,30.01,NE,35,0.0,1.0,87,0.00,,,0.02,Wunderground v.1.15,2013-10-22 01:29:00,
2013-10-21 20:34:00,55.9,52.4,30.01,NE,36,0.0,0.0,88,0.00,,,0.02,Wunderground v.1.15,2013-10-22 01:34:00,
2013-10-21 20:39:00,55.6,52.4,30.02,NE,36,0.0,0.0,89,0.07,,,0.03,Wunderground v.1.15,2013-10-22 01:39:00,
2013-10-21 20:44:00,55.4,52.8,30.02,NNE,32,0.0,1.0,91,0.07,,,0.03,Wunderground v.1.15,2013-10-22 01:44:00,
2013-10-21 20:49:00,55.3,52.7,30.02,NW,326,0.0,1.0,91,0.07,,,0.04,Wunderground v.1.15,2013-10-22 01:49:00,
2013-10-21 20:54:00,55.0,52.4,30.02,NW,326,0.0,2.0,91,0.07,,,0.04,Wunderground v.1.15,2013-10-22 01:54:00,
2013-10-21 20:59:00,54.8,52.2,30.02,NW,307,1.0,2.0,91,0.06,,,0.05,Wunderground v.1.15,2013-10-22 01:59:00,
2013-10-21 21:04:00,54.7,52.1,30.02,NW,310,0.0,1.0,91,0.06,,,0.05,Wunderground v.1.15,2013-10-22 02:04:00,
2013-10-21 21:09:00,54.5,51.9,30.01,NW,313,0.0,1.0,91,0.07,,,0.06,Wunderground v.1.15,2013-10-22 02:09:00,
2013-10-21 21:14:00,54.3,51.7,30.01,NW,317,0.0,0.0,91,0.08,,,0.07,Wunderground v.1.15,2013-10-22 02:14:00,
2013-10-21 21:19:00,54.1,51.5,30.01,WNW,288,0.0,1.0,91,0.08,,,0.07,Wunderground v.1.15,2013-10-22 02:19:00,
2013-10-21 21:24:00,53.9,51.3,30.02,WNW,290,1.0,1.0,91,0.06,,,0.07,Wunderground v.1.15,2013-10-22 02:24:00,
2013-10-21 21:29:00,53.7,51.1,30.02,WNW,290,0.0,1.0,91,0.04,,,0.07,Wunderground v.1.15,2013-10-22 02:29:00,
2013-10-21 21:34:00,53.6,51.3,30.02,WNW,290,0.0,0.0,92,0.00,,,0.07,Wunderground v.1.15,2013-10-22 02:34:00,
2013-10-21 21:39:00,53.5,51.2,30.02,WNW,290,0.0,1.0,92,0.00,,,0.08,Wunderground v.1.15,2013-10-22 02:39:00,
2013-10-21 21:44:00,53.5,51.2,30.03,WNW,290,1.0,1.0,92,0.00,,,0.08,Wunderground v.1.15,2013-10-22 02:44:00,
2013-10-21 21:49:00,53.4,51.4,30.03,WNW,289,1.0,1.0,93,0.00,,,0.08,Wunderground v.1.15,2013-10-22 02:49:00,
2013-10-21 21:54:00,53.5,51.5,30.04,WNW,293,0.0,1.0,93,0.00,,,0.08,Wunderground v.1.15,2013-10-22 02:54:00,
2013-10-21 21:59:00,53.6,51.6,30.04,WNW,293,0.0,1.0,93,0.00,,,0.08,Wunderground v.1.15,2013-10-22 02:59:00,
2013-10-21 22:04:00,53.6,51.9,30.04,WNW,293,0.0,1.0,94,0.00,,,0.08,Wunderground v.1.15,2013-10-22 03:04:00,
2013-10-21 22:09:00,53.5,51.8,30.04,WNW,293,1.0,1.0,94,0.00,,,0.08,Wunderground v.1.15,2013-10-22 03:09:00,
2013-10-21 22:14:00,53.4,51.7,30.04,WNW,293,0.0,1.0,94,0.00,,,0.08,Wunderground v.1.15,2013-10-22 03:14:00,
2013-10-21 22:19:00,53.4,51.7,30.04,WNW,293,0.0,1.0,94,0.00,,,0.08,Wunderground v.1.15,2013-10-22 03:19:00,
2013-10-21 22:24:00,53.3,51.6,30.04,WNW,293,0.0,0.0,94,0.00,,,0.08,Wunderground v.1.15,2013-10-22 03:24:00,
2013-10-21 22:29:00,53.3,51.6,30.04,WNW,293,0.0,0.0,94,0.00,,,0.08,Wunderground v.1.15,2013-10-22 03:29:00,
2013-10-21 22:34:00,53.2,51.5,30.04,North,359,0.0,1.0,94,0.00,,,0.08,Wunderground v.1.15,2013-10-22 03:34:00,
2013-10-21 22:39:00,53.0,51.0,30.04,NE,36,0.0,2.0,93,0.00,,,0.08,Wunderground v.1.15,2013-10-22 03:39:00,
2013-10-21 22:44:00,53.0,51.0,30.04,NE,40,1.0,2.0,93,0.00,,,0.08,Wunderground v.1.15,2013-10-22 03:44:00,
2013-10-21 22:49:00,52.9,50.6,30.04,North,360,0.0,2.0,92,0.00,,,0.08,Wunderground v.1.15,2013-10-22 03:49:00,
2013-10-21 22:54:00,52.7,50.4,30.03,NE,50,3.0,5.0,92,0.00,,,0.08,Wunderground v.1.15,2013-10-22 03:54:00,
2013-10-21 22:59:00,52.7,49.5,30.03,NNE,16,4.0,9.0,89,0.00,,,0.08,Wunderground v.1.15,2013-10-22 03:59:00,
2013-10-21 23:01:00,52.7,49.5,30.03,NE,51,1.0,2.0,89,0.00,,,0.08,Wunderground v.1.15,2013-10-22 04:01:00,
2013-10-21 23:06:00,52.6,49.1,30.04,NE,50,1.0,6.0,88,0.00,,,0.08,Wunderground v.1.15,2013-10-22 04:06:00,
2013-10-21 23:11:00,52.5,49.0,30.04,NNW,342,1.0,3.0,88,0.00,,,0.08,Wunderground v.1.15,2013-10-22 04:11:00,
2013-10-21 23:16:00,52.4,49.3,30.04,NNE,25,1.0,3.0,89,0.00,,,0.08,Wunderground v.1.15,2013-10-22 04:16:00,
2013-10-21 23:21:00,52.3,49.2,30.05,NE,36,2.0,5.0,89,0.00,,,0.08,Wunderground v.1.15,2013-10-22 04:21:00,
2013-10-21 23:26:00,52.3,49.2,30.04,NNW,336,2.0,5.0,89,0.00,,,0.08,Wunderground v.1.15,2013-10-22 04:26:00,
2013-10-21 23:31:00,52.2,48.4,30.05,NE,46,2.0,6.0,87,0.00,,,0.08,Wunderground v.1.15,2013-10-22 04:31:00,
2013-10-21 23:36:00,52.1,48.7,30.04,NNW,331,0.0,7.0,88,0.00,,,0.08,Wunderground v.1.15,2013-10-22 04:36:00,
2013-10-21 23:41:00,51.9,48.2,30.04,NW,322,3.0,6.0,87,0.00,,,0.08,Wunderground v.1.15,2013-10-22 04:41:00,
2013-10-21 23:46:00,51.8,46.8,30.05,NE,41,2.0,6.0,83,0.00,,,0.08,Wunderground v.1.15,2013-10-22 04:46:00,
2013-10-21 23:51:00,51.7,46.7,30.05,North,6,0.0,2.0,83,0.00,,,0.08,Wunderground v.1.15,2013-10-22 04:51:00,
2013-10-21 23:56:00,51.5,46.2,30.05,NW,305,0.0,3.0,82,0.00,,,0.08,Wunderground v.1.15,2013-10-22 04:56:00,